Regional Weather Roundup
Issued by NWS Newport/Morehead, NC

Current Version | Previous Version | Graphics & Text | Print | Product List | Glossary On
Versions: 1 2 3 4 5 6 7 8 9 10 11 12 13 14 15 16 17 18 19 20 21 22 23 24 25 26 27 28 29 30 31 32 33 34 35 36 37 38 39 40 41 42 43 44 45 46 47 48 49 50
000 ASUS42 KMHX 261625 RWRMHX WEATHER ROUNDUP FOR EASTERN NORTH CAROLINA NATIONAL WEATHER SERVICE NEWPORT/MOREHEAD CITY NC 1100 AM EST SUN FEB 26 2017 NOTE: "FAIR" INDICATES FEW OR NO CLOUDS BELOW 12,000 FEET WITH NO SIGNIFICANT WEATHER AND/OR OBSTRUCTIONS TO VISIBILITY NCZ015>017-031-032-045>047-102-103-261700- NORTH COAST CITY SKY/WX TMP DP RH WIND PRES REMARKS EDENTON SUNNY 51 25 36 NW8 30.18R ELIZABETH CITY SUNNY 50 25 37 W6 30.16R KITTY HAWK NOT AVBL MANTEO SUNNY 50 32 49 N7 30.17R $$ NCZ045>047-081-094-103-104-261700- CENTRAL COAST CITY SKY/WX TMP DP RH WIND PRES REMARKS FRISCO SUNNY 54 31 41 VRB7 30.16R $$ NCZ095-097-098-100-101-261700- SOUTHERN COAST CITY SKY/WX TMP DP RH WIND PRES REMARKS BEAUFORT SUNNY 53 26 35 NW7 30.18R CEDAR ISLAND NOT AVBL JACKSONVILLE SUNNY 52 21 29 NW10 30.18S PINEY ISLAND SUNNY N/A N/A N/A N12 30.17R WILMINGTON SUNNY 54 20 26 NW13 30.20R $$ NCZ011>013-027>030-043-044-078>080-089-090>093-098-261700- COASTAL PLAIN CITY SKY/WX TMP DP RH WIND PRES REMARKS AHOSKIE N/A 46 23 39 NW5 30.19R CLINTON SUNNY 52 22 30 NW8 30.21S ELIZABETHTOWN SUNNY 52 21 29 NW8 30.20F GOLDSBORO SUNNY 50 16 25 NW9 30.18S GREENVILLE SUNNY 50 23 34 NW5 30.20R HAVELOCK SUNNY 51 26 37 N10G16 30.17F KENANSVILLE SUNNY 52 19 28 NW9 30.21R KINSTON SUNNY 50 19 29 NW7 30.20S NEW BERN SUNNY 52 25 35 NW7 30.19R RICHLANDS SUNNY 52 20 28 NW8 30.20R ROCKY MOUNT SUNNY 47 21 35 NW8 30.20R WASHINGTON SUNNY 50 24 36 N5 30.19S WHITEVILLE SUNNY 52 19 27 NW5 30.21S $$ AMZ130-135-150-152-154-156-158-170-250-252-270-ANZ085-086-088-633-658-670-261700- MARINE OBSERVATIONS STATION/POSITION TIME TEMP WIND PRES WAVE SWELL AIR SEA DIR/SP/G HT/PER HT/PER (UTC) (F) (DEG/KT/KT) (MB) (FT/S) (FT/S) CHESAPEAKE LIGHT NOT AVBL 64 E VA BEACH 1550 44 51 350/ 14/ 17 1020.4 7/ 9 5/ 9 DUCK 1600 45 48 20/ 9/ 11 1020.7 2 E DUCK 1600 49 N/A 4/10 2/11 OREGON INLET 1600 47 60 20/ 11/ 14 1021.0 13E OREGON INLT NOT AVBL HATTERAS CG 1600 49 62 330/ 12/ 14 1021.2 DIAMOND BUOY 1550 51 72 350/ 12/ 17 1021.0 6/ 9 5/ 9 CAPE LOOKOUT 1600 51 320/ 7/ 10 1021.6 BEAUFORT LAB 1600 50 62 320/ 5/ 9 1020.9 30 SE NEW RVR IN 1608 50 350/ 10/ 17 1022.1 30 SE NEW RVR IN 1543 65 N/A 5/ 4 2/11 27 SE WRIGHTSVLE 1608 51 61 330/ 10/ 16 1021.7 5 SE WRIGHTSVLE 1608 51 58 330/ 12/ 17 1022.5 225 S CAPE HAT 1550 69 71 300/ 12/ 16 1019.2 8/ 8 7/ 8 41 SE CHARLESTON 1550 56 69 350/ 10/ 14 1022.7 4/ 9 3/ 9 $$

USA.gov is the U.S. government's official web portal to all federal, state and local government web resources and services.